Free Severe Weather Alerts by Email and Text Message   

 
Follow iAlert.com on twitter @ialertcom
Search For Active Alerts in Your Area  
  Hi Guest:  [ Sign-up / Services ] [ Login ]

Current weather by "City, St" or "zip code"  

 

Advertise Here

Hazardous Weather Conditions

No active alerts for CHICAGO, ILLINOIS

Current Conditions: CHICAGO, ILLINOIS

Light Rain Fog/Mist


39.0 F

Last Updated on Mar 25 2017, 9:52 am CDT
Humidity: 100%
Wind Speed: NE 15.0 G 24.2 mph
Barometer 30.07 in
Dewpoint: 39.0 F
Visibility: 3.00 mi
Precip: 00.05 in
Heat Index: NA
Wind Chill: 31 F
Current conditions at:

Chicago / Wheeling, Pal-Waukee Airport, IL (KPWK)

Lat: 42.12 Lon: -87.904

Local Radar Image active severe weather and emergency alerts image image weather storm and storm spotter reports image weather observation monitoring service image
Local
Radar
Active
Alerts
Storm Reports Weather
Monitoring

Weather Alert Notification Services


ialert severe weather and emergency alerts by text message and email ialert daily weather forecast by email and text message service ialert real-time weather-observation monitoring and alert notification service ialert storm report monitoring alert notification

Observation History for CHICAGO, ILLINOIS


Time Wind
(mph)
Vis
(mi)
Weather Precip (in) Temperature (F) Relative
Humidity
Wind
Chill
(°F)
Heat
Index
(°F)
Pressure
Air Dwpt altimeter
(in)
sea level
(mb)
9:52 am CDT NE 15.0 G 24.2 3.00 Light Rain Fog/Mist 00.05 39.0 39.0 100% 31 NA 30.07 1018.8
8:52 am CDT NE 13.8 G 24.2 7.00 Overcast 00.01 40.0 39.9 100% 32 NA 30.07 1018.9
7:52 am CDT NE 10.4 G 20.7 4.00 Light Rain Fog/Mist 00.05 39.0 39.0 100% 32 NA 30.08 1018.9
6:52 am CDT NE 8.1 4.00 Rain Fog/Mist -- 40.0 39.9 100% 35 NA 30.08 1018.9
5:52 am CDT N 4.6 5.00 Light Rain Fog/Mist 00.02 39.0 39.0 100% 36 NA 30.07 1018.7
4:52 am CDT N 11.5 10.00 Overcast -- 39.0 37.9 96% 32 NA 30.04 1017.6
3:52 am CDT N 13.8 10.00 Overcast -- 38.0 37.0 97% 30 NA 30.05 1017.5
2:52 am CDT N 12.7 10.00 Overcast -- 39.0 37.9 96% 31 NA 30.07 1018.3
1:52 am CDT N 10.4 10.00 Overcast Trace 39.0 37.9 96% 32 NA 30.08 1018.7
12:52 am CDT N 12.7 10.00 Overcast -- 40.0 37.9 93% 33 NA 30.08 1018.5
11:52 pm CDT N 11.5 10.00 Mostly Cloudy -- 40.0 37.9 93% 33 NA 30.07 1018.3
10:52 pm CDT N 13.8 10.00 Mostly Cloudy Trace 41.0 37.9 89% 33 NA 30.08 1018.7
9:52 pm CDT N 12.7 10.00 Light Rain Trace 40.0 37.9 93% 33 NA 30.10 1019.3
8:52 pm CDT NE 13.8 G 21.9 10.00 Mostly Cloudy -- 40.0 37.0 89% 32 NA 30.06 1018.3
7:52 pm CDT N 11.5 G 17.3 9.00 Mostly Cloudy -- 41.0 37.9 89% 34 NA 30.03 1017.2
6:52 pm CDT N 11.5 G 24.2 9.00 Fair -- 44.0 37.9 79% 38 NA 30.02 1016.7
5:52 pm CDT N 15.0 G 23.0 10.00 Mostly Cloudy -- 47.0 39.0 74% 41 NA 29.99 1015.7
4:52 pm CDT NE 10.4 G 21.9 10.00 Mostly Cloudy -- 55.0 44.1 67% 52 NA 29.94 1014.0
3:52 pm CDT SW 13.8 G 23.0 10.00 Fair -- 78.0 41.0 27% NA NA 29.89 1012.1
2:52 pm CDT W 20.7 G 28.8 10.00 Fair and Breezy -- 80.0 43.0 27% NA 79 29.89 1011.9
1:52 pm CDT SW 16.1 G 25.3 10.00 Fair -- 79.0 44.1 29% NA NA 29.89 1012.0
12:52 pm CDT W 19.6 G 29.9 10.00 Fair -- 77.0 45.0 32% NA NA 29.90 1012.4
11:52 am CDT SW 15.0 G 24.2 10.00 Fair -- 74.0 50.0 43% NA NA 29.91 1012.8
10:52 am CDT SW 16.1 G 25.3 10.00 Fair -- 68.0 51.1 55% NA NA 29.92 1013.1

Regional Weather Observation:


Chicago, Chicago-OHare International Airport, IL (KORD)

Light Rain Fog/Mist
42.0 F

Chicago/Waukegan Regional Airport, IL (KUGN)

Fog/Mist
38.0 F

Chicago, Chicago Midway Airport, IL (KMDW)

Heavy Rain Fog/Mist
42.0 F

Kenosha, Kenosha Regional Airport, WI (KENW)

Overcast and Breezy
39.0 F

Chicago / West Chicago, Dupage Airport, IL (KDPA)

Light Rain Fog/Mist
41.0 F

Racine, Batten International Airport, WI (KRAC)

Light Rain
39.0 F

Advertise Here


Advertise Here